477  
ASUS41 KBTV 200530  
RWRBTV  
VERMONT REGIONAL WEATHER ROUNDUP  
NATIONAL WEATHER SERVICE BURLINGTON VT  
1200 AM EST MON NOV 20 2017  
 
NOTE: "FAIR" INDICATES FEW OR NO CLOUDS BELOW 12,000 FEET WITH NO  
SIGNIFICANT WEATHER AND/OR S TO VISIBILITY
.  
 
* THESE REPORTS ARE NOT UNDER NWS QUALITY CONTROL AND/OR DO NOT  
REPORT WEATHER SUCH AS PRECIPITATION AND FOG.
 
 
VTZ001>019-200600-  
_____VERMONT_____  
 
 
CITY SKY/WX TMP DP RH WIND PRES REMARKS
 
BURLINGTON CLOUDY 31 19 61 NW12 29.67R WCI 22  
MONTPELIER CLOUDY 28 21 75 NW9 29.63R WCI 19  
LYNDONVILLE* CLOUDY 26 20 79 W16G25 29.59R WCI 13  
MIDDLEBURY* CLOUDY 31 23 71 CALM 29.66R  
RUTLAND* CLOUDY 31 20 63 W12 29.64S WCI 22  
SPRINGFIELD PTCLDY 33 20 58 W6 29.64R WCI 28  
HIGHGATE* CLOUDY 28 21 75 W3 29.67R  
NEWPORT* LGT SNOW 24 20 83 W13G18 29.61R WCI 13  
BENNINGTON PTCLDY 32 24 72 SW5 29.67R WCI 27  
SUTTON* N/A 25 N/A N/A MISG N/A  
ISLAND POND* N/A 25 N/A N/A W14 N/A WCI 13  
GALLUP MILLS* N/A 25 N/A N/A MISG N/A  
UNION VILLAGE* N/A 32 N/A N/A MISG N/A  
 
_____LAKE CHAMPLAIN_____  
 
 
CITY SKY/WX TMP DP RH WIND PRES REMARKS
 
BURTON ISLAND* N/A 32 27 80 NW16G23 N/A WCI 21  
COLCHESTER RF* N/A 32 25 74 NW17G24 N/A WCI 21  
DIAMOND ISL* N/A 34 23 64 MISG N/A  
 

 
 
NYZ007-026>031-035-052-083-087-200600-  
_____NORTHERN NEW YORK_____  
 
 
CITY SKY/WX TMP DP RH WIND PRES REMARKS
 
PLATTSBURGH CLOUDY 30 18 60 CALM 29.66R  
SARANAC LAKE LGT SNOW 22 20 92 VRB7 29.61R FOG WCI 13  
MASSENA CLOUDY 27 22 81 W13 29.72R WCI 16  
OGDENSBURG* FLURRIES 29 25 84 W9G18 29.73R WCI 21  
POTSDAM* LGT SNOW 27 27 100 NW6 29.72R WCI 20  
WATERTOWN LGT SNOW 29 24 82 W24 29.77R WCI 15  
FT DRUM MOCLDY 28 19 69 W9G17 29.72R WCI 20  
ALBANY LGT SNOW 32 27 81 NW15G35 29.75R WCI 22  
GLENS FALLS CLEAR 32 20 61 W3 29.68R  
 

 
NHZ002-005-011-200600-  
_____NEW HAMPSHIRE_____  
 
 
CITY SKY/WX TMP DP RH WIND PRES REMARKS
 
LEBANON PTCLDY 33 19 56 W5 29.62R WCI 29  
KEENE CLOUDY 34 21 59 W5 29.65R WCI 30  
MT WASHINGTON SNOWSHWR 7 7 100 NW72G82 N/A VSB 0 WCI -25  
PLYMOUTH FAIR 33 21 62 W9G20 29.60R WCI 25  
WHITEFIELD FLURRIES 29 21 72 W14G20 29.56R WCI 18  
 

 
 
_____REGIONAL QUEBEC LOCATIONS_____  
 
 
CITY SKY/WX TMP DP RH WIND PRES REMARKS
 
MONTREAL CLOUDY 27 19 74 W13G18 29.66R WCI 16  
QUEBEC CITY FLURRIES 25 16 68 W21G30 29.48R WCI 10  
SHERBROOKE FLURRIES 25 21 86 W15G21 29.54R WCI 12  
 
_____REGIONAL ONTARIO LOCATIONS_____  
 
 
CITY SKY/WX TMP DP RH WIND PRES REMARKS
 
OTTAWA FLURRIES 23 16 74 NW20G26 29.72R WCI 8  
 
______KEY______  
VSB - VISIBILITY IN MILES  
WCI - WIND CHILL INDEX  
HX - HEAT INDEX  

 
NNNN  
 
 
CLICK HERE TO GO TO PREVIOUS BULLETINS.

The Nexlab VT Page
The Nexlab NY Page Main Text Page